{"data":{"norad_id":68573,"epoch":"2026-05-25T03:06:37.456416Z","epoch_age_seconds":57677,"freshness":"FRESH","line1":"1 68573U 26072A   26145.12960019  .00008555  00000+0  11496-2 0  9997","line2":"2 68573  51.8989 297.6086 0001604 130.8096 229.3006 14.79941701  7706","mean_motion":14.79941701,"eccentricity":0.0001604,"inclination_deg":51.8989,"raan_deg":297.6086,"arg_perigee_deg":130.8096,"mean_anomaly_deg":229.3006,"bstar":0.0011496,"rev_number":770,"period_min":97.301130107151,"perigee_km":628.38413612463,"apogee_km":630.63218869273,"semimajor_km":7007.6451624087,"source":"CELESTRAK","updated_at":"2026-05-25T13:38:07.922074Z"}}